Location: ?
(35.2180°N, 139.6392°E)
Time: 16:27:51
(UTC+00:00)

USA 234 - Pass Details

Date: 05 August 2024
Orbit: 1100 x 1107 km, 123.0° (Epoch: 08 July)

Event Time Altitude Azimuth Distance (km) Brightness Sun altitude
Rises 17:28:27 0° 50° (NE) 3,926 7.5 -25.6°
Reaches altitude 10° 17:31:05 10° 56° (ENE) 2,964 6.5 -25.2°
Maximum altitude 17:37:17 44° 128° (SE) 1,476 3.9 -24.3°
Enters shadow 17:39:51 31° 176° (S) 1,825 4.1 -23.9°
